QPF
0.00 0.01 0.03 0.01 0.00 0.00 0.00 0.01 0.02 0.02 0.04 0.08 0.10 0.09 0.09 0.12 0.12 0.03 0.00 0.00 0.09 0.11 0.01 0.00 0.00 0.00 0.00 0.00 0.00 0.00 0.00 0.00 0.00 0.00 0.00 0.00 0.00 0.00 0.00 0.00 0.00 0.00 0.00 0.00 0.00 0.00 0.00
0.00 0.01 0.01 0.00 0.01 0.00 0.00 0.01 0.03 0.09 0.13 0.14 0.13 0.14 0.12 0.11 0.15 0.10 0.00 0.00 0.02 0.19 0.10 0.00 0.00 0.00 0.00 0.00 0.00 0.00 0.00 0.00 0.00 0.00 0.00 0.00 0.01 0.02 0.01 0.01 0.01 0.00 0.00 0.00 0.00 0.00 0.00
0.00 0.00 0.00 0.01 0.00 0.00 0.01 0.02 0.05 0.10 0.12 0.11 0.11 0.12 0.10 0.09 0.14 0.15 0.02 0.00 0.01 0.11 0.04 0.00 0.00 0.00 0.00 0.00 0.00 0.00 0.00 0.00 0.00 0.00 0.00 0.00 0.00 0.01 0.00 0.00 0.00 0.00 0.00 0.00 0.00 0.00 0.00
0.01 0.01 0.01 0.02 0.00 0.00 0.02 0.04 0.07 0.07 0.06 0.04 0.06 0.05 0.10 0.13 0.05 0.07 0.00 0.00 0.00 0.04 0.01 0.00 0.00 0.00 0.00 0.00 0.00 0.00 0.00 0.00 0.00 0.00 0.00 0.00 0.02 0.01 0.02 0.00 0.00 0.00 0.00 0.00 0.00 0.00 0.00
0.03 0.03 0.03 0.02 0.00 0.00 0.03 0.05 0.04 0.04 0.05 0.05 0.06 0.06 0.07 0.10 0.05 0.06 0.00 0.00 0.02 0.04 0.00 0.00 0.00 0.00 0.00 0.00 0.00 0.00 0.00 0.00 0.00 0.00 0.01 0.02 0.03 0.00 0.00 0.02 0.01 0.00 0.00 0.00 0.00 0.00 0.00
0.04 0.07 0.07 0.02 0.00 0.01 0.03 0.04 0.03 0.06 0.06 0.06 0.06 0.07 0.10 0.07 0.06 0.05 0.00 0.02 0.03 0.03 0.01 0.00 0.00 0.00 0.00 0.00 0.00 0.00 0.00 0.00 0.00 0.00 0.01 0.02 0.01 0.00 0.01 0.03 0.02 0.00 0.00 0.00 0.00 0.00 0.00
0.05 0.11 0.08 0.01 0.00 0.01 0.03 0.03 0.03 0.07 0.05 0.06 0.05 0.09 0.07 0.04 0.02 0.01 0.00 0.02 0.01 0.00 0.00 0.00 0.00 0.00 0.00 0.00 0.00 0.00 0.00 0.00 0.00 0.00 0.00 0.01 0.01 0.00 0.00 0.01 0.00 0.01 0.01 0.00 0.00 0.00 0.00
0.05 0.11 0.05 0.01 0.00 0.01 0.02 0.02 0.02 0.06 0.05 0.08 0.05 0.03 0.04 0.06 0.04 0.00 0.00 0.00 0.00 0.00 0.00 0.00 0.00 0.00 0.00 0.00 0.00 0.00 0.00 0.00 0.00 0.00 0.00 0.01 0.01 0.00 0.00 0.01 0.01 0.02 0.01 0.00 0.00 0.00 0.00
0.05 0.08 0.02 0.01 0.00 0.01 0.02 0.02 0.01 0.04 0.03 0.06 0.04 0.01 0.01 0.02 0.01 0.00 0.00 0.00 0.00 0.00 0.00 0.00 0.00 0.00 0.00 0.00 0.00 0.00 0.00 0.00 0.00 0.00 0.00 0.00 0.00 0.00 0.00 0.00 0.00 0.00 0.00 0.00 0.00 0.00 0.00
0.05 0.03 0.00 0.01 0.00 0.00 0.01 0.01 0.01 0.01 0.01 0.04 0.02 0.00 0.00 0.00 0.00 0.00 0.00 0.00 0.00 0.00 0.00 0.00 0.00 0.00 0.00 0.00 0.00 0.00 0.00 0.00 0.00 0.00 0.00 0.00 0.00 0.00 0.00 0.00 0.00 0.00 0.01 0.00 0.00 0.00 0.00
0.04 0.00 0.00 0.00 0.00 0.00 0.01 0.01 0.00 0.00 0.00 0.02 0.01 0.00 0.00 0.00 0.00 0.01 0.00 0.00 0.00 0.00 0.00 0.00 0.00 0.00 0.00 0.00 0.00 0.00 0.00 0.00 0.00 0.00 0.00 0.00 0.00 0.00 0.00 0.00 0.00 0.00 0.00 0.00 0.00 0.00 0.00
0.02 0.00 0.00 0.00 0.00 0.00 0.00 0.00 0.00 0.00 0.00 0.01 0.00 0.00 0.00 0.00 0.00 0.00 0.00 0.00 0.00 0.00 0.00 0.00 0.00 0.00 0.00 0.00 0.00 0.00 0.00 0.00 0.00 0.00 0.00 0.00 0.00 0.00 0.00 0.00 0.00 0.00 0.00 0.00 0.00 0.01 0.02
0.01 0.00 0.00 0.00 0.00 0.00 0.00 0.00 0.00 0.00 0.00 0.00 0.00 0.00 0.00 0.00 0.00 0.00 0.00 0.00 0.00 0.00 0.00 0.00 0.00 0.00 0.00 0.00 0.00 0.00 0.00 0.00 0.00 0.00 0.00 0.00 0.00 0.00 0.00 0.00 0.00 0.00 0.00 0.00 0.00 0.03 0.05
0.01 0.00 0.00 0.00 0.00 0.00 0.00 0.00 0.00 0.00 0.00 0.00 0.00 0.00 0.00 0.00 0.00 0.00 0.00 0.00 0.00 0.00 0.00 0.00 0.00 0.00 0.00 0.00 0.00 0.00 0.00 0.00 0.00 0.00 0.00 0.00 0.00 0.00 0.00 0.00 0.00 0.00 0.00 0.01 0.02 0.09 0.03
0.00 0.00 0.00 0.00 0.00 0.00 0.00 0.00 0.00 0.00 0.00 0.00 0.00 0.00 0.00 0.00 0.00 0.00 0.00 0.00 0.00 0.00 0.00 0.00 0.00 0.00 0.00 0.00 0.00 0.00 0.00 0.00 0.00 0.00 0.00 0.00 0.00 0.00 0.00 0.00 0.00 0.00 0.01 0.02 0.03 0.01 0.00
0.00 0.00 0.00 0.00 0.00 0.00 0.00 0.00 0.00 0.00 0.00 0.00 0.00 0.00 0.00 0.00 0.00 0.00 0.00 0.00 0.00 0.00 0.00 0.00 0.00 0.00 0.00 0.00 0.00 0.00 0.00 0.00 0.00 0.00 0.00 0.00 0.00 0.00 0.00 0.00 0.00 0.00 0.00 0.00 0.00 0.00 0.00
0.00 0.00 0.00 0.00 0.00 0.00 0.00 0.00 0.00 0.00 0.00 0.00 0.00 0.00 0.00 0.00 0.00 0.00 0.00 0.00 0.00 0.00 0.00 0.00 0.00 0.00 0.00 0.00 0.00 0.00 0.00 0.00 0.00 0.00 0.00 0.00 0.00 0.00 0.00 0.00 0.00 0.00 0.00 0.00 0.00 0.00 0.00
0.00 0.00 0.00 0.00 0.00 0.00 0.00 0.00 0.00 0.00 0.00 0.00 0.00 0.00 0.00 0.00 0.00 0.00 0.00 0.00 0.00 0.00 0.00 0.00 0.00 0.00 0.00 0.00 0.00 0.00 0.00 0.00 0.00 0.00 0.00 0.00 0.00 0.00 0.00 0.00 0.00 0.00 0.00 0.00 0.00 0.00 0.00
0.00 0.00 0.00 0.00 0.00 0.00 0.00 0.00 0.00 0.00 0.00 0.00 0.00 0.00 0.00 0.00 0.00 0.00 0.00 0.00 0.00 0.00 0.00 0.00 0.00 0.00 0.00 0.00 0.00 0.00 0.00 0.00 0.00 0.00 0.00 0.00 0.00 0.00 0.00 0.00 0.00 0.00 0.00 0.00 0.00 0.00 0.00
0.00 0.00 0.00 0.00 0.00 0.00 0.00 0.00 0.00 0.00 0.00 0.00 0.00 0.00 0.00 0.00 0.00 0.00 0.00 0.00 0.00 0.00 0.00 0.00 0.00 0.00 0.00 0.00 0.00 0.00 0.00 0.00 0.00 0.00 0.00 0.00 0.00 0.00 0.00 0.00 0.00 0.00 0.00 0.00 0.00 0.00 0.00
0.00 0.00 0.00 0.00 0.00 0.00 0.00 0.00 0.00 0.00 0.00 0.00 0.00 0.00 0.00 0.00 0.00 0.00 0.00 0.00 0.00 0.00 0.00 0.00 0.00 0.00 0.00 0.00 0.00 0.00 0.00 0.00 0.00 0.00 0.00 0.00 0.00 0.00 0.00 0.00 0.00 0.00 0.00 0.00 0.00 0.00 0.00
0.00 0.00 0.00 0.00 0.00 0.00 0.00 0.00 0.00 0.00 0.00 0.00 0.00 0.00 0.00 0.00 0.00 0.00 0.00 0.00 0.00 0.00 0.00 0.00 0.00 0.00 0.00 0.00 0.00 0.00 0.00 0.00 0.00 0.00 0.00 0.00 0.00 0.00 0.00 0.00 0.00 0.00 0.00 0.00 0.00 0.00 0.00
0.00 0.00 0.00 0.00 0.00 0.00 0.00 0.00 0.00 0.00 0.00 0.00 0.00 0.00 0.00 0.00 0.00 0.00 0.00 0.00 0.00 0.00 0.00 0.00 0.00 0.00 0.00 0.00 0.00 0.00 0.00 0.00 0.00 0.00 0.00 0.00 0.00 0.00 0.00 0.00 0.00 0.00 0.00 0.00 0.00 0.00 0.00
0.00 0.00 0.00 0.00 0.00 0.00 0.00 0.00 0.00 0.00 0.00 0.00 0.00 0.00 0.00 0.00 0.00 0.00 0.00 0.00 0.00 0.00 0.00 0.00 0.00 0.00 0.00 0.00 0.00 0.00 0.00 0.00 0.00 0.00 0.00 0.00 0.00 0.00 0.00 0.00 0.00 0.00 0.00 0.00 0.00 0.00 0.00
0.00 0.00 0.00 0.00 0.00 0.00 0.00 0.00 0.00 0.00 0.00 0.00 0.00 0.00 0.00 0.00 0.00 0.00 0.00 0.00 0.00 0.00 0.00 0.00 0.00 0.00 0.00 0.00 0.00 0.00 0.00 0.00 0.00 0.00 0.00 0.00 0.00 0.00 0.00 0.00 0.00 0.00 0.00 0.00 0.00 0.00 0.00
0.00 0.00 0.00 0.00 0.00 0.00 0.00 0.00 0.00 0.00 0.00 0.00 0.00 0.00 0.00 0.00 0.00 0.00 0.00 0.00 0.00 0.00 0.00 0.00 0.00 0.00 0.00 0.00 0.00 0.00 0.00 0.00 0.00 0.00 0.00 0.00 0.00 0.00 0.00 0.00 0.00 0.00 0.00 0.00 0.00 0.00 0.00
0.00 0.00 0.00 0.00 0.00 0.00 0.00 0.00 0.00 0.00 0.00 0.00 0.00 0.00 0.00 0.00 0.00 0.00 0.00 0.00 0.00 0.00 0.00 0.00 0.00 0.00 0.00 0.00 0.00 0.00 0.00 0.00 0.00 0.00 0.00 0.00 0.00 0.00 0.00 0.00 0.00 0.00 0.00 0.00 0.00 0.00 0.00
0.00 0.00 0.00 0.00 0.00 0.00 0.00 0.00 0.00 0.00 0.00 0.00 0.00 0.00 0.00 0.00 0.00 0.00 0.00 0.00 0.00 0.00 0.00 0.00 0.00 0.00 0.00 0.00 0.00 0.00 0.00 0.00 0.00 0.00 0.00 0.00 0.00 0.00 0.00 0.00 0.00 0.00 0.00 0.00 0.00 0.00 0.00
0.00 0.00 0.00 0.00 0.00 0.00 0.00 0.00 0.00 0.00 0.00 0.00 0.00 0.00 0.00 0.00 0.00 0.00 0.00 0.00 0.00 0.00 0.00 0.00 0.00 0.00 0.00 0.00 0.00 0.00 0.00 0.00 0.00 0.00 0.00 0.00 0.00 0.00 0.00 0.00 0.00 0.00 0.00 0.00 0.00 0.00 0.00
MSLP
1022.25 1021.73 1021.16 1020.74 1020.11 1019.28 1018.52 1017.90 1017.57 1017.08 1016.70 1016.30 1015.91 1015.54 1015.29 1014.74 1014.56 1014.39 1014.20 1014.10 1013.88 1013.88 1013.97 1014.28 1014.65 1015.00 1015.43 1015.59 1014.81 1013.66 1013.58 1013.77 1014.38 1015.12 1015.67 1016.11 1016.62 1016.64 1016.49 1016.18 1016.12 1016.03 1015.35 1015.03 1014.66 1014.49 1014.15
1022.42 1021.95 1021.41 1020.78 1019.99 1019.25 1018.64 1018.17 1017.68 1017.33 1016.91 1016.30 1015.66 1015.37 1015.20 1014.75 1014.53 1014.34 1014.11 1013.92 1013.78 1013.45 1013.94 1014.28 1014.66 1015.08 1015.30 1015.12 1014.07 1013.75 1013.93 1014.32 1014.71 1015.30 1015.70 1016.16 1016.08 1016.13 1016.04 1015.89 1015.96 1015.24 1015.02 1014.62 1014.25 1013.64 1013.39
1022.54 1021.98 1021.43 1020.81 1020.02 1019.32 1018.73 1018.24 1017.48 1016.95 1016.35 1015.68 1015.12 1014.78 1014.52 1014.25 1014.35 1014.40 1014.17 1013.95 1013.80 1013.95 1014.06 1014.35 1014.77 1015.04 1015.21 1014.63 1014.17 1014.15 1014.16 1014.48 1014.70 1015.15 1015.60 1015.75 1015.83 1016.04 1016.09 1015.91 1015.53 1015.22 1015.00 1014.38 1013.43 1012.93 1012.82
1022.57 1021.99 1021.43 1020.74 1020.09 1019.39 1018.74 1018.10 1017.46 1016.78 1016.12 1015.36 1014.69 1014.31 1014.02 1014.11 1014.09 1014.29 1014.08 1013.94 1013.86 1014.28 1014.40 1014.59 1014.89 1015.14 1014.96 1014.30 1014.35 1014.31 1014.28 1014.53 1014.75 1015.12 1015.36 1015.48 1015.63 1016.03 1016.01 1015.85 1015.45 1015.18 1015.01 1014.29 1012.65 1012.26 1011.88
1022.48 1021.83 1021.27 1020.84 1020.18 1019.15 1018.67 1017.99 1017.30 1016.65 1016.05 1015.26 1014.59 1014.15 1013.85 1014.04 1014.19 1014.04 1013.92 1013.78 1013.75 1014.30 1014.48 1014.62 1015.20 1015.39 1014.78 1014.19 1014.23 1014.00 1014.16 1014.44 1014.89 1015.11 1015.34 1015.65 1015.94 1016.11 1016.19 1016.13 1015.43 1015.02 1014.61 1014.00 1012.84 1011.75 1011.67
1022.21 1021.65 1021.26 1020.83 1020.14 1019.15 1018.58 1017.93 1017.23 1016.66 1015.96 1015.38 1014.38 1013.67 1013.70 1013.95 1014.26 1014.32 1014.00 1013.84 1014.15 1014.62 1014.80 1014.88 1015.31 1015.80 1014.81 1014.64 1014.01 1013.93 1014.07 1014.35 1014.82 1015.34 1015.75 1016.02 1016.18 1016.19 1016.07 1015.61 1015.20 1014.83 1014.46 1013.53 1012.97 1011.69 1011.23
1022.01 1021.46 1021.28 1020.86 1020.12 1019.26 1018.72 1017.99 1017.33 1016.60 1015.92 1015.21 1014.54 1014.12 1013.96 1014.07 1014.10 1014.26 1014.41 1014.58 1014.95 1015.54 1015.51 1015.77 1015.74 1015.58 1015.16 1014.74 1014.10 1014.06 1014.16 1014.47 1014.89 1015.62 1016.11 1016.00 1016.30 1015.93 1015.51 1015.05 1014.75 1014.52 1014.22 1013.81 1012.88 1011.62 1011.26
1022.20 1021.61 1021.39 1020.82 1020.11 1019.42 1018.81 1018.06 1017.41 1016.56 1015.88 1015.38 1014.80 1014.34 1014.22 1014.23 1014.16 1014.29 1014.63 1014.87 1015.51 1015.66 1016.03 1015.85 1015.73 1015.50 1015.15 1014.82 1014.53 1014.26 1014.29 1014.88 1015.33 1015.87 1016.11 1016.35 1015.78 1014.94 1014.56 1014.30 1014.25 1014.28 1013.93 1013.37 1012.51 1011.55 1011.48
1022.29 1022.02 1021.43 1020.79 1020.17 1019.62 1018.86 1018.22 1017.56 1016.73 1016.06 1015.47 1015.02 1014.71 1014.59 1014.55 1014.28 1014.68 1015.05 1015.59 1015.52 1015.40 1015.73 1016.04 1015.68 1015.41 1015.17 1015.01 1014.81 1014.48 1014.56 1014.94 1015.46 1015.95 1016.11 1016.16 1014.99 1014.36 1014.10 1014.08 1014.03 1013.90 1013.85 1013.39 1013.00 1012.06 1010.98
1022.37 1022.22 1021.53 1020.89 1020.38 1019.65 1019.13 1018.47 1017.83 1017.11 1016.46 1015.65 1015.24 1015.17 1015.00 1014.80 1015.08 1015.39 1015.60 1015.79 1015.41 1015.50 1016.10 1016.84 1015.90 1015.40 1015.15 1015.02 1014.90 1014.55 1014.64 1015.18 1015.37 1015.77 1015.76 1015.62 1014.48 1014.25 1013.98 1013.93 1013.86 1013.80 1013.23 1013.20 1013.05 1013.08 1012.48
1022.50 1022.38 1021.77 1021.12 1020.58 1019.82 1019.35 1018.76 1018.15 1017.56 1017.00 1016.26 1015.69 1015.43 1015.35 1015.03 1015.88 1016.02 1016.15 1015.69 1015.45 1015.78 1016.88 1017.24 1015.97 1015.30 1015.27 1015.43 1015.19 1014.80 1014.67 1015.02 1015.54 1015.84 1016.30 1015.56 1014.80 1014.34 1013.98 1013.54 1013.49 1013.36 1013.14 1013.41 1013.37 1013.53 1013.24
1022.71 1022.20 1021.92 1021.48 1020.77 1020.11 1019.59 1018.96 1018.41 1017.85 1017.22 1016.92 1016.40 1016.09 1015.88 1016.13 1016.29 1016.51 1016.13 1015.71 1015.77 1016.66 1018.46 1017.48 1016.34 1015.83 1015.69 1015.34 1015.17 1015.01 1015.03 1015.25 1015.50 1015.98 1016.28 1015.91 1014.89 1014.49 1013.90 1013.29 1013.22 1013.12 1013.20 1013.46 1013.69 1013.97 1013.73
1022.87 1022.42 1022.11 1021.65 1021.18 1020.33 1020.10 1019.44 1018.67 1018.11 1017.61 1017.21 1016.94 1016.78 1016.57 1016.84 1017.42 1016.59 1016.20 1016.30 1016.76 1018.06 1018.90 1017.70 1016.84 1016.34 1016.11 1015.82 1015.52 1015.54 1015.82 1016.29 1016.86 1017.16 1017.17 1016.67 1015.66 1014.75 1014.22 1013.77 1013.31 1013.63 1013.74 1014.38 1014.88 1014.50 1014.62
1022.75 1022.37 1022.23 1021.65 1021.37 1020.88 1020.14 1019.44 1018.80 1018.33 1017.68 1017.32 1017.21 1017.12 1017.26 1017.33 1017.19 1016.71 1016.63 1017.19 1018.04 1019.08 1018.42 1017.35 1016.85 1016.57 1016.37 1015.99 1015.94 1016.32 1016.76 1017.49 1017.54 1017.95 1018.34 1017.77 1016.55 1015.50 1014.80 1014.62 1014.45 1014.36 1014.74 1015.19 1015.46 1015.25 1015.25
1022.66 1022.44 1022.27 1021.94 1021.52 1021.15 1020.57 1019.79 1019.15 1018.66 1018.34 1017.58 1017.55 1017.74 1017.67 1017.25 1016.96 1016.80 1017.36 1017.90 1019.05 1018.62 1018.00 1017.49 1016.99 1016.87 1016.62 1016.29 1016.41 1016.88 1017.75 1018.26 1018.26 1018.28 1018.53 1018.31 1017.24 1016.03 1015.30 1014.92 1014.77 1014.58 1015.24 1015.67 1015.85 1016.07 1016.01
1022.54 1022.28 1022.24 1021.99 1021.72 1021.27 1020.78 1020.02 1019.23 1018.79 1018.34 1017.69 1018.16 1018.60 1017.94 1017.16 1016.88 1017.12 1017.54 1018.50 1018.60 1018.06 1017.60 1017.36 1017.27 1017.16 1017.12 1017.05 1017.07 1017.51 1018.42 1018.53 1018.51 1018.41 1018.36 1018.46 1018.06 1017.07 1016.10 1015.49 1015.13 1015.40 1015.87 1016.33 1016.76 1017.38 1017.61
1022.58 1022.30 1022.18 1022.02 1021.82 1021.42 1020.90 1020.37 1019.62 1018.90 1018.35 1018.20 1018.73 1018.99 1017.47 1016.98 1016.88 1017.43 1018.63 1018.89 1018.34 1017.69 1017.42 1017.33 1017.30 1017.35 1017.52 1017.75 1017.92 1018.38 1018.94 1018.76 1018.81 1018.49 1018.38 1018.66 1018.98 1018.27 1017.37 1017.36 1017.17 1016.46 1016.79 1017.24 1017.71 1018.10 1018.11
1022.43 1022.06 1022.03 1022.02 1021.97 1021.62 1021.13 1020.74 1020.00 1019.18 1018.10 1018.23 1019.28 1019.74 1017.86 1017.21 1018.23 1019.66 1019.69 1018.96 1018.18 1017.87 1017.45 1017.28 1017.24 1017.46 1017.70 1018.00 1018.45 1018.72 1018.95 1019.11 1018.93 1018.92 1018.99 1019.02 1019.48 1020.01 1019.11 1018.03 1017.74 1017.67 1018.05 1018.42 1018.78 1019.23 1018.83
1022.16 1021.93 1021.91 1021.93 1021.96 1021.72 1021.34 1021.02 1020.45 1019.77 1019.15 1019.31 1020.26 1020.14 1018.61 1018.20 1020.83 1021.19 1020.22 1019.53 1018.85 1018.30 1018.04 1017.69 1017.74 1017.77 1017.90 1018.42 1018.90 1019.00 1019.00 1018.93 1019.05 1019.24 1019.50 1019.55 1020.69 1021.20 1020.22 1019.26 1018.44 1018.54 1018.41 1018.68 1019.06 1019.36 1019.64
1021.77 1021.85 1021.76 1021.67 1021.77 1021.79 1021.46 1020.93 1020.39 1019.74 1019.73 1020.26 1021.30 1021.46 1020.87 1020.93 1021.87 1021.80 1021.51 1020.66 1019.74 1019.13 1019.04 1018.69 1018.57 1018.19 1018.44 1018.93 1019.00 1019.33 1019.35 1019.14 1019.24 1019.49 1019.71 1020.09 1021.50 1022.06 1021.84 1021.05 1020.52 1019.53 1018.99 1018.85 1019.12 1019.98 1019.81
1021.32 1021.52 1021.40 1021.44 1021.35 1021.45 1021.55 1021.23 1020.45 1020.26 1019.77 1020.52 1022.39 1023.32 1023.01 1021.98 1022.15 1022.31 1021.90 1021.22 1021.09 1020.59 1019.82 1019.46 1019.61 1019.92 1019.72 1019.62 1019.77 1019.90 1019.83 1019.65 1019.54 1019.87 1020.21 1020.82 1022.46 1022.56 1022.03 1021.28 1020.53 1019.71 1019.18 1018.69 1018.98 1019.09 1019.05
1020.73 1020.96 1021.15 1021.28 1021.24 1021.08 1021.32 1021.25 1020.97 1020.43 1020.37 1021.17 1022.34 1022.88 1023.31 1023.42 1022.51 1021.70 1021.63 1021.66 1021.25 1021.03 1021.04 1020.78 1020.83 1020.82 1020.54 1020.74 1020.85 1020.77 1020.74 1020.66 1020.69 1020.44 1020.96 1021.61 1022.75 1022.97 1022.49 1021.26 1020.39 1019.32 1018.49 1018.26 1018.11 1018.10 1018.10
1020.40 1020.48 1020.52 1020.76 1021.04 1020.99 1021.04 1021.14 1020.85 1020.57 1020.50 1021.39 1022.44 1022.72 1022.74 1022.66 1022.24 1022.15 1021.80 1021.78 1021.69 1021.26 1021.73 1021.85 1021.94 1021.71 1021.58 1021.66 1021.53 1021.41 1021.30 1021.35 1021.40 1021.60 1021.83 1022.29 1023.08 1023.44 1022.80 1021.39 1019.97 1019.28 1017.48 1017.28 1017.15 1017.17 1017.16
1019.94 1020.09 1020.11 1020.23 1020.67 1020.86 1020.84 1020.92 1020.99 1020.88 1020.70 1021.22 1021.78 1022.22 1022.80 1023.22 1023.02 1022.02 1021.38 1021.05 1020.99 1021.26 1021.29 1021.06 1021.25 1021.73 1022.18 1021.79 1021.41 1021.49 1021.64 1021.64 1021.61 1021.94 1022.18 1022.74 1023.49 1023.64 1023.18 1021.64 1019.94 1017.54 1016.71 1016.54 1016.58 1016.42 1016.40
1019.27 1019.56 1019.80 1019.82 1020.10 1020.37 1020.70 1020.77 1020.85 1020.81 1020.77 1021.04 1021.46 1021.88 1022.40 1022.52 1022.01 1021.68 1022.04 1021.97 1021.52 1021.44 1021.35 1021.14 1021.22 1021.19 1021.36 1021.77 1022.11 1022.06 1021.82 1021.89 1021.85 1022.17 1022.47 1022.80 1023.38 1023.87 1023.61 1022.44 1019.43 1016.90 1016.25 1016.21 1016.31 1015.79 1015.55
1018.65 1018.75 1019.05 1019.24 1019.54 1020.03 1020.02 1020.25 1020.31 1020.55 1020.62 1021.24 1021.41 1021.68 1021.84 1022.12 1021.74 1021.37 1021.56 1020.83 1021.18 1021.76 1022.07 1022.10 1021.90 1021.46 1021.23 1021.86 1022.59 1023.07 1022.99 1022.47 1022.15 1022.24 1022.53 1022.93 1023.25 1023.69 1023.78 1022.23 1019.48 1016.81 1015.98 1015.73 1015.94 1015.76 1015.24
1017.91 1018.06 1018.40 1018.50 1018.85 1019.22 1019.58 1019.77 1020.08 1019.97 1020.44 1020.82 1021.20 1021.16 1021.95 1022.35 1021.51 1021.39 1020.94 1021.06 1021.39 1021.50 1021.31 1021.13 1021.40 1021.86 1021.83 1022.25 1022.79 1023.36 1023.15 1022.58 1022.63 1022.56 1022.62 1023.06 1023.46 1023.38 1023.04 1021.54 1018.49 1016.39 1015.95 1015.84 1016.12 1015.94 1015.22
1016.80 1017.21 1017.61 1017.84 1017.89 1018.42 1018.87 1019.33 1019.59 1019.94 1020.09 1020.68 1020.96 1020.82 1021.06 1021.87 1021.20 1020.69 1020.71 1021.09 1021.20 1020.96 1021.70 1022.11 1022.38 1022.46 1022.87 1023.11 1023.41 1023.40 1023.21 1022.54 1022.51 1021.76 1021.68 1022.23 1022.56 1022.53 1021.96 1020.50 1017.97 1016.15 1016.37 1015.97 1014.79 1014.79 1014.94
1015.72 1016.10 1016.68 1017.11 1017.32 1017.65 1018.07 1018.67 1019.17 1019.47 1019.92 1020.32 1020.96 1020.74 1020.67 1021.07 1020.74 1020.30 1020.22 1019.87 1019.97 1020.32 1020.91 1021.58 1021.74 1021.92 1022.10 1022.95 1023.73 1023.66 1023.36 1022.97 1022.37 1021.90 1020.96 1020.88 1020.19 1020.31 1019.91 1017.38 1015.66 1015.30 1014.53 1014.13 1014.19 1014.45 1014.83
Thickness
5573 5563 5554 5537 5523 5516 5512 5505 5494 5482 5469 5464 5461 5462 5466 5471 5474 5479 5488 5495 5503 5511 5517 5521 5524 5528 5530 5530 5537 5553 5553 5552 5548 5543 5537 5534 5530 5532 5536 5539 5540 5534 5535 5537 5537 5536 5538
5565 5554 5539 5522 5511 5503 5492 5478 5459 5445 5442 5442 5444 5444 5447 5453 5458 5464 5475 5484 5494 5505 5510 5514 5519 5523 5526 5529 5543 5546 5546 5545 5541 5534 5532 5529 5531 5533 5534 5537 5535 5541 5539 5537 5538 5539 5540
5557 5546 5525 5510 5498 5481 5463 5444 5431 5424 5423 5424 5426 5429 5434 5440 5445 5451 5463 5475 5486 5494 5502 5508 5514 5519 5522 5529 5537 5540 5542 5538 5536 5532 5530 5530 5531 5527 5527 5525 5531 5534 5534 5535 5541 5543 5539
5551 5536 5517 5499 5478 5460 5444 5429 5419 5413 5410 5411 5413 5415 5421 5428 5436 5443 5455 5468 5479 5486 5495 5503 5509 5515 5519 5531 5534 5537 5538 5534 5532 5530 5529 5529 5527 5523 5524 5526 5528 5530 5526 5529 5545 5546 5547
5545 5528 5510 5487 5467 5452 5437 5426 5417 5412 5409 5406 5409 5410 5413 5415 5425 5438 5452 5464 5476 5483 5493 5501 5506 5511 5521 5530 5532 5537 5536 5533 5530 5528 5526 5524 5519 5517 5517 5517 5526 5521 5530 5532 5536 5551 5549
5541 5524 5503 5482 5463 5451 5438 5425 5416 5410 5407 5404 5407 5411 5410 5412 5417 5430 5448 5462 5471 5480 5492 5500 5506 5508 5522 5525 5534 5536 5536 5534 5530 5525 5521 5517 5513 5512 5512 5517 5522 5523 5525 5538 5533 5546 5549
5541 5524 5501 5480 5464 5452 5439 5427 5417 5411 5407 5404 5402 5402 5406 5411 5418 5430 5446 5457 5464 5474 5488 5494 5503 5509 5519 5526 5534 5535 5536 5532 5529 5523 5511 5515 5510 5510 5510 5514 5513 5518 5512 5520 5529 5544 5546
5540 5524 5501 5483 5466 5458 5445 5433 5422 5416 5410 5407 5402 5403 5408 5413 5422 5433 5445 5458 5466 5479 5483 5496 5504 5513 5520 5527 5529 5534 5535 5530 5526 5514 5517 5512 5510 5517 5518 5517 5515 5512 5515 5515 5529 5541 5541
5541 5524 5505 5489 5472 5464 5454 5441 5431 5423 5417 5413 5414 5415 5418 5422 5431 5439 5449 5460 5474 5487 5492 5503 5509 5515 5522 5528 5529 5533 5536 5533 5526 5517 5512 5502 5513 5517 5516 5505 5503 5501 5501 5511 5519 5528 5539
5544 5525 5508 5494 5480 5472 5461 5452 5443 5435 5432 5428 5426 5426 5429 5436 5442 5449 5458 5470 5484 5493 5481 5495 5510 5520 5526 5529 5532 5540 5540 5534 5530 5521 5517 5505 5516 5510 5500 5495 5493 5480 5499 5509 5512 5507 5509
5548 5529 5515 5501 5489 5482 5471 5462 5454 5449 5448 5450 5449 5448 5449 5456 5457 5462 5472 5482 5493 5496 5457 5504 5515 5526 5529 5530 5536 5540 5542 5537 5526 5522 5509 5502 5501 5492 5486 5487 5487 5480 5494 5494 5504 5503 5508
5553 5539 5525 5509 5499 5492 5482 5478 5468 5466 5468 5463 5466 5467 5469 5468 5473 5478 5488 5497 5502 5475 5477 5500 5519 5524 5530 5538 5541 5543 5542 5539 5533 5522 5506 5495 5494 5488 5485 5484 5482 5488 5490 5492 5493 5496 5495
5557 5545 5533 5520 5509 5507 5493 5488 5488 5485 5484 5484 5483 5482 5484 5484 5482 5494 5502 5505 5488 5492 5501 5514 5523 5530 5534 5539 5544 5545 5541 5524 5511 5488 5474 5485 5490 5483 5486 5479 5488 5484 5477 5451 5461 5500 5510
5565 5555 5542 5536 5523 5517 5512 5506 5509 5504 5506 5507 5504 5502 5502 5501 5504 5511 5515 5506 5496 5512 5512 5533 5537 5540 5541 5547 5549 5539 5532 5511 5522 5510 5473 5466 5455 5487 5490 5491 5487 5482 5482 5453 5480 5513 5506
5573 5563 5553 5545 5536 5530 5529 5519 5522 5519 5513 5517 5523 5521 5518 5522 5525 5528 5522 5518 5500 5521 5533 5540 5545 5544 5543 5553 5553 5541 5525 5512 5520 5513 5500 5476 5487 5496 5497 5496 5495 5499 5482 5490 5495 5497 5474
5580 5572 5562 5554 5547 5543 5542 5540 5536 5538 5534 5532 5530 5528 5532 5539 5542 5539 5533 5537 5535 5544 5546 5549 5550 5547 5550 5547 5552 5540 5517 5526 5519 5521 5511 5506 5471 5498 5497 5500 5503 5500 5500 5481 5465 5454 5479
5583 5577 5569 5562 5556 5553 5554 5553 5548 5548 5548 5545 5535 5535 5547 5551 5553 5547 5528 5540 5553 5557 5555 5557 5553 5552 5551 5548 5544 5531 5522 5533 5522 5520 5520 5507 5490 5495 5494 5487 5483 5490 5484 5483 5486 5492 5444
5587 5583 5575 5567 5562 5559 5560 5556 5559 5559 5564 5558 5545 5540 5556 5556 5541 5523 5525 5558 5563 5560 5559 5562 5561 5559 5557 5549 5539 5538 5535 5527 5525 5523 5521 5515 5496 5463 5500 5501 5492 5495 5485 5470 5467 5474 5496
5590 5587 5581 5572 5566 5564 5563 5561 5559 5561 5564 5563 5551 5547 5560 5560 5524 5520 5540 5552 5560 5561 5561 5565 5564 5563 5557 5552 5550 5542 5538 5542 5532 5528 5524 5525 5477 5439 5485 5495 5499 5484 5487 5486 5455 5451 5474
5594 5589 5585 5580 5573 5566 5566 5566 5569 5572 5566 5558 5547 5545 5547 5540 5531 5535 5533 5543 5552 5553 5554 5558 5555 5562 5564 5551 5544 5547 5543 5546 5537 5534 5536 5526 5482 5468 5460 5477 5481 5484 5495 5492 5468 5431 5436
5598 5591 5588 5584 5581 5575 5568 5567 5573 5568 5570 5562 5541 5537 5536 5539 5545 5534 5538 5542 5538 5536 5544 5547 5552 5538 5543 5555 5549 5543 5542 5540 5546 5535 5529 5518 5481 5494 5507 5501 5503 5504 5503 5506 5462 5475 5448
5601 5595 5589 5585 5582 5580 5573 5570 5568 5570 5567 5558 5553 5547 5534 5528 5539 5552 5545 5543 5544 5545 5536 5541 5541 5536 5529 5537 5536 5536 5535 5537 5536 5533 5528 5514 5485 5470 5474 5517 5510 5514 5518 5512 5514 5511 5503
5598 5596 5592 5587 5582 5579 5576 5571 5572 5570 5571 5558 5547 5543 5543 5548 5546 5547 5546 5545 5542 5544 5539 5531 5528 5533 5532 5529 5529 5531 5527 5521 5525 5529 5523 5511 5485 5481 5501 5508 5497 5491 5537 5533 5532 5527 5524
5595 5593 5591 5587 5582 5578 5576 5572 5568 5566 5568 5563 5554 5547 5543 5545 5535 5548 5559 5559 5555 5544 5542 5546 5537 5539 5530 5526 5534 5531 5528 5527 5524 5518 5518 5517 5490 5492 5486 5493 5512 5549 5544 5545 5536 5532 5528
5595 5591 5587 5585 5581 5577 5572 5570 5567 5564 5561 5561 5555 5549 5543 5543 5543 5550 5544 5543 5545 5540 5543 5545 5540 5536 5530 5530 5525 5527 5514 5527 5531 5520 5516 5511 5505 5489 5494 5478 5533 5568 5557 5550 5547 5544 5538
5592 5591 5589 5584 5580 5573 5574 5571 5568 5562 5559 5553 5551 5546 5544 5542 5545 5548 5540 5551 5544 5535 5530 5531 5531 5532 5536 5525 5525 5516 5510 5524 5530 5517 5509 5512 5503 5494 5486 5512 5548 5570 5560 5555 5551 5541 5551
5589 5588 5584 5584 5580 5575 5570 5568 5564 5564 5554 5553 5548 5545 5537 5532 5536 5538 5539 5538 5530 5527 5533 5532 5535 5531 5528 5524 5520 5510 5530 5526 5514 5522 5537 5481 5476 5491 5480 5489 5534 5553 5557 5556 5556 5557 5550
5589 5585 5581 5579 5579 5573 5568 5563 5561 5557 5554 5548 5543 5544 5538 5527 5532 5540 5539 5529 5523 5525 5523 5519 5520 5516 5508 5513 5506 5503 5510 5518 5517 5525 5524 5522 5495 5486 5489 5489 5550 5552 5553 5552 5562 5559 5556
5587 5584 5579 5574 5572 5570 5566 5560 5555 5551 5548 5544 5536 5537 5536 5530 5534 5537 5536 5537 5537 5532 5518 5508 5519 5513 5511 5506 5486 5483 5506 5471 5505 5513 5519 5519 5529 5529 5525 5545 5561 5554 5565 5565 5561 5561 5554